Weather History for KARM - October, 2013

Change the Weather History Date:

Tuesday, October 15, 2013

  Actual Average (KPSX) Record (KPSX)
Temperature  
Mean Temperature 77 °F -  
Max Temperature 86 °F 81 °F 93 °F (1948)
Min Temperature 68 °F 63 °F 47 °F (1978)
Cooling Degree Days 12    
Growing Degree Days 27 (Base 50)    
Moisture  
Dew Point 70 °F    
Average Humidity 82    
Maximum Humidity 98    
Minimum Humidity 56    
Precipitation  
Precipitation 0.00 in - - ()
Sea Level Pressure  
Sea Level Pressure 29.95 in    
Wind  
Wind Speed 4 mph (SSE)    
Max Wind Speed 14 mph    
Max Gust Speed 16 mph    
Visibility 8 miles    
Events      
Averages and records for this station are not official NWS values.
T = Trace of Precipitation, MM = Missing Value Source: NWS Daily Summary

Daily Weather History Graph

Daily Weather History Graph

Search for Another Location

Airport or City:

Trip Planner

Search our weather history database for the weather conditions in past years. The results will help you decide how hot, cold, wet, or windy it might be!

Date:

Astronomy

Oct. 15, 2013 Rise Set
Actual Time 7:26 AM CDT 6:54 PM CDT
Civil Twilight 7:02 AM CDT 7:17 PM CDT
Nautical Twilight 6:34 AM CDT 7:45 PM CDT
Astronomical Twilight 6:07 AM CDT 8:13 PM CDT
Moon 4:47 PM CDT (10/15) 4:04 AM CDT (10/15)
Length of Visible Light 12h 15m
Length of Day
11h 27m
Waxing Gibbous, 88% of the Moon is Illuminated
Oct 15
Waxing Gibbous
Oct 18
Full
Oct 26
Last Quarter
Nov 3
New
Nov 9
First Quarter

Hourly Weather History & Observations

Time (CDT) Temp. Heat Index Dew Point Humidity Pressure Visibility Wind Dir Wind Speed Gust Speed Precip Events Conditions
12:15 AM 71.2 °F - 69.4 °F 94% 29.98 in 10.0 mi ESE 5.8 mph - N/A   Clear
12:35 AM 71.1 °F - 69.3 °F 94% 29.98 in 10.0 mi ESE 4.6 mph - N/A   Clear
12:55 AM 70.7 °F - 69.1 °F 95% 29.98 in 7.0 mi ESE 4.6 mph - N/A   Clear
1:15 AM 70.7 °F - 69.3 °F 95% 29.99 in 7.0 mi ESE 4.6 mph - N/A   Clear
1:35 AM 70.3 °F - 68.9 °F 95% 29.99 in 7.0 mi Calm Calm - N/A   Clear
1:55 AM 70.5 °F - 69.1 °F 95% 29.99 in 7.0 mi Calm Calm - N/A   Clear
2:15 AM 69.8 °F - 68.5 °F 96% 29.98 in 5.0 mi Calm Calm - N/A   Clear
2:35 AM 70.0 °F - 68.9 °F 96% 29.98 in 7.0 mi Calm Calm - N/A   Clear
2:55 AM 69.8 °F - 68.5 °F 96% 29.98 in 4.0 mi Calm Calm - N/A   Clear
3:15 AM 69.8 °F - 68.5 °F 96% 29.98 in 1.5 mi Calm Calm - N/A   Mist
3:35 AM 69.8 °F - 68.7 °F 96% 29.98 in 1.8 mi Calm Calm - N/A   Mist
3:55 AM 69.3 °F - 68.4 °F 97% 29.97 in 1.0 mi Calm Calm - N/A   Mist
4:15 AM 69.1 °F - 68.2 °F 97% 29.96 in 1.8 mi Calm Calm - N/A   Scattered Clouds
4:35 AM 69.1 °F - 68.2 °F 97% 29.96 in 0.8 mi Calm Calm - N/A   Mostly Cloudy
4:55 AM 68.9 °F - 68.0 °F 97% 29.96 in 2.5 mi ESE 3.5 mph - N/A   Scattered Clouds
5:15 AM 68.7 °F - 68.0 °F 98% 29.96 in 2.0 mi Calm Calm - N/A   Scattered Clouds
5:35 AM 69.3 °F - 68.5 °F 98% 29.96 in 3.0 mi Calm Calm - N/A   Scattered Clouds
5:55 AM 69.8 °F - 68.9 °F 97% 29.96 in 2.5 mi Calm Calm - N/A   Clear
6:15 AM 69.4 °F - 68.9 °F 98% 29.96 in 2.0 mi Calm Calm - N/A   Mostly Cloudy
6:35 AM 70.2 °F - 69.4 °F 98% 29.96 in 5.0 mi Calm Calm - N/A   Mostly Cloudy
6:55 AM 70.3 °F - 69.8 °F 98% 29.97 in 4.0 mi Calm Calm - N/A   Scattered Clouds
7:15 AM 70.2 °F - 69.4 °F 98% 29.98 in 4.0 mi Calm Calm - N/A   Clear
7:35 AM 70.2 °F - 69.3 °F 97% 29.98 in 2.0 mi Calm Calm - N/A   Clear
7:55 AM 69.8 °F - 68.9 °F 97% 29.98 in 1.5 mi Calm Calm - N/A   Mist
8:15 AM 70.2 °F - 69.6 °F 98% 29.98 in 3.0 mi Calm Calm - N/A   Clear
8:35 AM 72.9 °F - 72.0 °F 97% 29.99 in 5.0 mi ESE 3.5 mph - N/A   Clear
8:55 AM 74.8 °F - 73.9 °F 97% 29.99 in 7.0 mi ESE 5.8 mph - N/A   Clear
9:15 AM 76.8 °F - 74.3 °F 92% 30.00 in 10.0 mi SE 3.5 mph - N/A   Clear
9:35 AM 78.1 °F - 73.8 °F 86% 29.99 in 10.0 mi SSE 5.8 mph - N/A   Clear
9:55 AM 79.7 °F - 73.9 °F 82% 30.00 in 10.0 mi South 8.1 mph - N/A   Scattered Clouds
10:15 AM 80.4 °F 84.8 °F 72.9 °F 78% 29.99 in 10.0 mi South 10.4 mph - N/A   Clear
10:35 AM 81.1 °F 85.4 °F 71.8 °F 73% 29.99 in 10.0 mi South 11.5 mph - N/A   Clear
10:55 AM 83.1 °F 88.4 °F 72.0 °F 69% 29.99 in 10.0 mi South 10.4 mph - N/A   Scattered Clouds
11:15 AM 83.3 °F 88.4 °F 71.6 °F 68% 29.99 in 10.0 mi SSW 9.2 mph - N/A   Scattered Clouds
11:35 AM 82.6 °F 86.8 °F 70.7 °F 67% 29.99 in 10.0 mi South 9.2 mph - N/A   Mostly Cloudy
11:55 AM 84.0 °F 88.4 °F 70.0 °F 63% 29.98 in 10.0 mi South 10.4 mph - N/A   Scattered Clouds
12:15 PM 85.1 °F 90.1 °F 70.7 °F 62% 29.98 in 10.0 mi SSE 9.2 mph 16.1 mph N/A   Clear
12:35 PM 85.3 °F 90.1 °F 70.3 °F 61% 29.97 in 10.0 mi SSE 10.4 mph - N/A   Scattered Clouds
12:55 PM 85.8 °F 90.4 °F 69.8 °F 59% 29.96 in 10.0 mi South 10.4 mph - N/A   Clear
1:15 PM 85.3 °F 90.4 °F 70.9 °F 62% 29.95 in 10.0 mi South 8.1 mph - N/A   Scattered Clouds
1:35 PM 85.5 °F 89.8 °F 69.6 °F 59% 29.94 in 10.0 mi South 11.5 mph - N/A   Scattered Clouds
1:55 PM 84.9 °F 89.1 °F 69.8 °F 60% 29.93 in 10.0 mi South 8.1 mph - N/A   Mostly Cloudy
2:15 PM 86.0 °F 90.4 °F 69.8 °F 58% 29.93 in 10.0 mi SSE 10.4 mph 16.1 mph N/A   Scattered Clouds
2:35 PM 86.2 °F 90.7 °F 69.6 °F 58% 29.92 in 10.0 mi South 10.4 mph - N/A   Clear
2:55 PM 83.8 °F 87.3 °F 68.7 °F 60% 29.91 in 10.0 mi SSE 11.5 mph - N/A   Clear
3:15 PM 85.1 °F 88.8 °F 68.9 °F 58% 29.90 in 10.0 mi SSE 11.5 mph - N/A   Scattered Clouds
3:35 PM 84.9 °F 88.2 °F 68.2 °F 57% 29.90 in 10.0 mi SSE 11.5 mph - N/A   Clear
3:55 PM 85.3 °F 88.8 °F 68.5 °F 57% 29.90 in 10.0 mi SSE 13.8 mph - N/A   Scattered Clouds
4:15 PM 85.1 °F 88.5 °F 68.5 °F 57% 29.90 in 10.0 mi SSE 11.5 mph - N/A   Clear
4:35 PM 84.6 °F 87.6 °F 68.0 °F 57% 29.90 in 10.0 mi SSE 11.5 mph - N/A   Clear
4:55 PM 84.0 °F 86.8 °F 67.5 °F 57% 29.90 in 10.0 mi SSE 10.4 mph - N/A   Clear
5:15 PM 83.8 °F 86.3 °F 66.6 °F 56% 29.89 in 10.0 mi SSE 10.4 mph - N/A   Clear
5:35 PM 82.9 °F 85.4 °F 66.9 °F 58% 29.90 in 10.0 mi South 8.1 mph - N/A   Clear
5:55 PM 82.2 °F 85.5 °F 68.7 °F 64% 29.90 in 10.0 mi SSE 9.2 mph - N/A   Clear
6:15 PM 80.6 °F 83.6 °F 69.1 °F 68% 29.90 in 10.0 mi SSE 10.4 mph - N/A   Clear
6:35 PM 79.0 °F - 69.4 °F 72% 29.90 in 10.0 mi SSE 9.2 mph - N/A   Clear
6:55 PM 77.0 °F - 69.8 °F 78% 29.91 in 10.0 mi SSE 6.9 mph - N/A   Clear
7:15 PM 75.0 °F - 69.8 °F 84% 29.92 in 10.0 mi SSE 4.6 mph - N/A   Clear
7:55 PM 73.4 °F - 70.2 °F 90% 29.92 in 10.0 mi SE 4.6 mph - N/A   Clear
8:15 PM 72.5 °F - 69.4 °F 90% 29.92 in 10.0 mi SE 5.8 mph - N/A   Clear
8:35 PM 72.0 °F - 69.6 °F 92% 29.93 in 10.0 mi SSE 5.8 mph - N/A   Clear
8:55 PM 72.5 °F - 69.8 °F 91% 29.93 in 10.0 mi SSE 4.6 mph - N/A   Clear
9:15 PM 71.8 °F - 69.4 °F 92% 29.94 in 10.0 mi SE 4.6 mph - N/A   Clear
9:35 PM 71.1 °F - 69.1 °F 93% 29.95 in 10.0 mi SSE 4.6 mph - N/A   Clear
9:55 PM 71.6 °F - 69.4 °F 93% 29.96 in 10.0 mi SSE 3.5 mph - N/A   Clear
10:15 PM 71.6 °F - 69.4 °F 93% 29.96 in 10.0 mi SE 3.5 mph - N/A   Clear
10:35 PM 70.9 °F - 68.9 °F 93% 29.95 in 10.0 mi ESE 3.5 mph - N/A   Clear
10:55 PM 71.1 °F - 69.3 °F 94% 29.96 in 10.0 mi Calm Calm - N/A   Clear
11:15 PM 70.9 °F - 69.1 °F 94% 29.96 in 10.0 mi SSE 3.5 mph - N/A   Clear
11:35 PM 70.0 °F - 68.4 °F 95% 29.95 in 10.0 mi SE 3.5 mph - N/A   Clear
11:55 PM 69.3 °F - 68.0 °F 96% 29.95 in 10.0 mi Calm Calm - N/A   Clear